Temperature
22 20 19 20 20 20 20 20 20 20 21 21 20 20 20 21 22 22 23 24 25 26 26 26 26 26 25 24 24 23 23 22 22 21 21 20 20 20 20 19 19 19 18 18
20 20 21 22 21 21 21 20 20 20 21 21 20 20 20 21 21 23 23 24 25 26 26 26 26 25 25 25 24 24 23 22 22 21 21 20 20 20 19 19 19 19 19 18
21 21 22 22 22 21 21 20 20 20 20 20 19 18 19 21 21 22 23 24 24 25 25 25 25 25 25 24 24 24 23 22 22 21 20 20 19 19 19 19 18 18 18 18
22 22 23 22 21 21 20 21 20 20 19 17 18 17 18 19 19 20 21 22 23 25 25 25 25 25 24 24 23 23 23 22 21 21 20 20 19 19 19 18 18 18 18 17
21 22 22 21 22 22 21 21 20 19 18 17 17 16 17 17 18 18 19 21 22 24 25 24 24 24 23 23 23 23 22 22 21 21 20 20 19 19 18 18 18 17 17 17
21 22 22 21 22 22 21 19 18 16 15 16 17 16 16 16 16 17 17 18 20 22 23 23 23 22 22 22 22 22 22 22 22 21 21 20 19 19 18 18 18 18 17 17
19 20 21 21 20 20 19 17 16 16 15 15 17 17 16 16 16 16 16 16 17 20 21 21 21 21 22 22 22 21 22 22 22 21 20 19 19 18 18 18 18 18 17 17
17 17 19 20 20 19 18 18 16 16 15 16 17 16 15 16 16 16 15 15 16 17 18 19 20 21 21 22 22 22 21 21 21 20 20 19 19 18 18 18 18 17 17 17
17 17 19 20 19 19 17 16 16 15 15 15 16 16 16 16 15 15 15 15 14 15 16 17 18 19 20 21 21 21 21 21 21 20 20 19 19 18 18 18 17 17 17 16
17 16 17 18 18 17 16 15 13 14 15 15 15 15 14 14 14 14 15 14 14 15 15 16 17 18 19 20 21 21 21 21 20 20 19 19 19 18 18 18 17 17 17 16
16 15 14 15 15 14 14 13 13 13 14 14 14 14 14 13 14 14 14 14 14 15 15 16 17 17 19 20 21 21 21 21 20 19 19 19 18 18 18 18 18 17 17 16
15 13 12 14 15 16 14 13 12 13 13 13 13 13 13 13 14 14 14 14 15 15 16 17 17 18 19 20 20 20 21 21 20 19 19 19 18 18 18 18 18 17 17 16
15 12 11 12 13 14 14 13 13 12 12 12 13 13 13 13 14 14 14 15 15 16 16 17 18 19 19 20 20 20 20 20 20 19 19 18 18 18 18 18 17 17 17 16
15 12 12 12 12 12 12 12 13 12 12 12 12 12 12 13 13 14 14 15 15 15 16 17 18 19 20 20 20 20 20 20 19 19 18 18 18 18 17 17 17 17 16 16
13 13 13 13 13 12 11 11 12 12 12 12 12 12 11 12 13 14 14 14 15 15 16 17 18 19 19 20 20 20 20 19 19 18 18 17 17 17 17 17 17 16 16 16
12 13 12 12 12 12 10 10 11 11 11 12 12 11 12 12 13 13 13 14 13 14 14 16 17 18 19 19 19 19 19 19 18 18 17 17 17 17 17 17 17 16 16 16
11 12 11 11 12 12 10 9 10 10 10 10 10 10 11 12 12 13 13 13 13 14 14 15 16 17 17 18 18 18 18 18 17 17 17 17 17 16 16 16 16 16 16 16
12 11 9 10 11 10 9 10 10 10 10 10 10 10 11 11 12 13 13 13 14 14 14 15 15 16 16 16 16 16 16 16 16 16 15 15 15 15 15 15 15 15 15 15
11 11 9 9 10 10 10 11 10 9 10 9 9 10 10 11 12 13 13 13 14 14 15 15 15 15 15 15 15 15 15 15 15 15 14 14 14 15 15 15 14 14 14 14
11 9 9 9 10 9 9 11 10 10 10 10 9 9 10 10 10 11 13 14 14 15 15 15 15 15 15 14 14 15 14 14 14 13 13 13 13 13 13 13 13 13 13 13
10 9 8 8 9 9 10 10 10 10 9 9 9 9 10 10 10 12 13 14 15 15 15 15 15 14 14 14 14 14 13 13 13 13 12 12 12 12 12 12 12 12 12 12
10 9 9 8 8 9 11 10 9 9 10 10 10 10 10 11 12 13 14 15 15 15 15 15 15 14 14 14 14 13 13 13 12 12 12 12 12 11 11 11 11 11 11 12
10 10 9 9 9 11 11 11 11 10 10 11 11 11 11 12 12 13 14 15 15 15 15 15 15 15 14 14 14 13 13 13 13 12 12 12 11 11 11 11 11 11 11 12
11 11 10 9 10 11 11 11 11 11 11 11 11 11 12 12 13 13 14 15 15 16 16 15 15 15 15 14 14 14 13 13 13 12 12 12 11 11 11 11 11 11 11 11
11 11 10 9 10 11 12 12 12 11 11 12 12 12 12 12 13 13 14 15 15 16 16 16 15 15 15 14 14 14 13 13 13 12 12 12 11 11 11 11 11 11 11 11
11 10 9 9 11 11 12 12 12 12 11 11 11 12 12 12 12 13 14 15 15 16 16 16 16 15 15 15 14 14 13 13 13 12 12 12 11 11 11 11 11 11 11 11
Wind_Speed
1 3 2 5 7 6 4 4 6 6 4 3 5 8 10 8 7 8 8 8 9 11 10 9 15 17 16 15 15 14 13 12 10 7 7 6 6 6 6 6 7 8 7 7
4 2 7 6 5 4 4 5 6 6 4 4 7 10 10 9 8 9 9 9 11 11 7 7 10 14 15 14 13 12 11 11 11 8 6 4 4 4 5 5 6 8 7 7
4 7 5 4 5 5 6 6 6 7 4 3 5 8 7 6 5 7 8 9 10 13 12 11 11 11 12 12 12 11 10 10 10 9 6 5 4 3 2 4 5 6 7 7
5 5 3 5 7 6 6 8 7 4 2 4 2 6 8 7 8 8 10 9 8 11 12 12 13 13 13 11 10 10 10 10 10 10 9 8 6 5 6 5 6 6 6 6
6 5 5 6 8 6 7 4 3 2 2 3 2 3 8 8 11 14 14 12 7 5 11 13 14 14 14 12 11 9 10 9 9 8 9 8 5 4 3 3 5 5 5 5
6 5 2 4 6 1 2 5 5 5 4 3 4 4 5 7 11 17 19 19 12 3 6 10 10 12 13 12 11 8 8 7 7 8 8 7 7 5 4 4 4 4 3 4
8 7 7 8 11 9 7 5 4 5 2 6 4 3 1 8 12 15 18 18 16 11 5 10 12 11 12 12 11 8 9 7 6 7 6 6 6 5 6 5 5 4 3 3
7 8 8 9 6 7 5 3 4 4 5 4 3 2 3 7 11 14 17 17 17 16 12 5 6 8 10 11 10 10 8 7 6 5 4 4 5 4 3 4 4 4 3 3
5 6 8 10 9 6 5 2 2 3 3 3 4 0 2 11 16 18 19 19 18 16 13 11 7 3 6 9 9 9 8 6 5 4 3 3 5 5 4 4 3 3 2 2
3 6 6 8 8 8 5 2 3 2 2 3 3 3 7 14 15 15 16 16 14 14 13 12 10 6 2 3 5 7 7 6 5 5 4 4 6 6 5 5 4 3 3 3
5 2 7 7 6 6 6 4 3 1 1 2 0 3 7 10 11 11 11 11 10 11 10 9 6 6 6 4 4 6 7 6 5 5 4 6 5 5 5 5 4 4 3 4
4 3 4 5 3 2 3 2 2 2 1 1 2 1 8 10 10 9 10 10 9 7 5 4 5 8 9 6 5 5 7 7 6 6 6 6 5 5 5 4 4 4 5 4
4 5 5 9 7 6 5 5 1 2 2 1 2 2 9 11 12 11 11 10 8 7 6 7 8 11 11 9 7 7 7 7 6 6 6 4 4 5 5 5 5 5 5 5
4 3 1 3 5 4 6 11 7 1 2 4 4 4 12 17 16 15 12 11 9 7 5 6 8 9 10 8 6 6 6 5 6 5 5 3 4 6 6 6 5 6 6 6
4 3 4 4 10 13 15 16 14 12 8 5 6 8 14 17 15 13 13 13 14 13 10 6 4 4 5 4 2 1 2 4 5 5 4 3 4 5 5 5 6 6 6 7
5 3 4 5 11 14 16 19 16 13 11 9 9 8 14 16 12 13 15 17 16 15 15 13 11 9 9 8 7 6 6 5 5 5 3 2 2 3 3 3 4 4 5 5
5 3 3 3 2 4 10 13 11 9 11 8 8 9 15 16 16 14 14 15 15 13 13 14 13 12 11 11 11 12 11 11 10 9 7 6 5 5 5 4 2 2 4 4
2 3 3 2 4 6 2 4 6 4 9 10 9 10 14 16 14 7 10 13 12 11 11 10 9 10 10 11 11 10 10 11 10 9 8 7 6 6 6 6 5 3 2 3
6 4 4 3 4 3 2 4 4 3 2 8 10 13 16 17 9 5 12 15 9 7 7 7 7 8 9 9 8 9 9 8 8 7 6 6 6 6 6 6 5 3 2 2
8 8 6 5 4 2 4 7 5 2 0 6 10 13 15 14 10 10 17 17 10 5 5 6 6 7 8 6 7 9 7 7 7 5 5 5 5 5 5 5 4 3 3 2
6 6 6 4 3 1 4 7 4 2 4 9 9 10 11 7 5 12 17 13 7 2 4 5 6 5 4 4 6 7 6 5 3 4 4 5 5 5 5 5 4 4 4 3
2 3 3 3 3 3 4 3 2 3 5 6 8 8 9 10 12 13 13 11 7 1 2 4 4 3 3 3 5 5 4 4 3 4 5 5 6 6 6 7 7 6 6 5
3 5 4 4 4 4 2 3 4 4 4 5 6 9 10 10 10 13 12 11 6 2 0 2 3 3 4 3 3 4 5 3 3 5 5 4 5 6 7 7 8 7 7 6
2 3 4 2 2 3 3 3 4 5 6 8 8 10 8 9 11 12 11 10 7 4 2 1 2 3 3 3 3 3 4 4 5 5 3 3 4 5 6 6 7 7 7 7
6 4 4 2 3 2 3 4 5 5 6 7 8 7 7 8 9 8 9 9 8 5 3 1 2 1 1 1 2 3 4 5 5 3 2 2 2 3 4 5 6 6 6 5
5 7 7 6 6 5 5 5 4 4 5 6 7 8 8 7 9 9 9 9 8 7 4 3 3 1 2 3 2 1 2 4 4 2 1 1 1 1 1 2 3 7 6 9
Wind_Direction
177 88 234 229 203 199 208 245 271 269 260 275 269 275 281 278 275 277 277 266 253 242 237 204 184 178 176 178 178 180 180 175 166 161 162 162 177 181 185 202 205 204 200 197
33 275 237 212 201 203 220 252 268 276 261 273 272 273 269 256 248 252 261 262 253 252 241 205 177 172 172 174 174 172 172 166 165 165 163 163 161 179 192 203 209 211 206 193
234 249 232 221 232 237 246 235 240 256 302 319 313 304 294 287 274 279 275 267 249 230 215 197 174 161 154 155 163 165 157 149 147 144 135 121 105 97 155 213 220 219 209 193
271 266 251 252 250 222 253 244 225 241 322 301 342 299 297 310 323 325 312 292 263 226 197 180 164 151 142 139 141 139 134 130 134 138 144 151 163 177 195 198 211 216 201 191
292 290 291 273 256 224 230 232 199 192 178 302 295 244 296 345 348 340 336 333 322 231 180 164 157 147 136 131 125 125 124 126 132 137 145 147 155 176 178 182 203 215 208 194
276 304 348 312 308 315 48 45 37 50 79 287 249 209 306 2 354 350 353 354 354 11 143 133 127 126 121 117 110 114 124 129 135 138 144 152 161 166 168 188 202 212 208 194
337 344 7 18 7 1 25 54 8 343 345 250 241 189 53 7 11 8 1 1 5 16 78 124 130 131 129 124 128 145 148 148 147 144 152 166 173 178 192 201 202 197 194 195
9 324 350 8 5 317 302 165 188 235 240 276 288 205 107 12 12 14 13 7 12 21 21 44 115 130 134 134 147 155 157 155 153 151 169 190 180 172 190 192 181 185 191 199
356 297 335 1 358 353 336 329 197 179 238 256 277 113 57 7 12 13 11 12 12 12 19 24 25 80 128 141 163 159 157 156 160 164 171 181 169 161 164 162 159 163 170 167
31 304 322 353 14 19 19 356 50 93 213 245 311 34 3 352 353 359 3 3 4 9 14 20 14 5 7 157 165 158 159 168 171 164 163 159 153 152 151 140 142 146 150 140
49 19 325 360 13 350 8 25 28 124 155 160 40 44 360 337 332 338 341 346 355 6 8 9 359 314 284 251 200 173 176 175 172 161 150 145 148 148 145 143 153 158 159 159
7 86 327 316 318 12 74 47 45 118 86 95 129 77 342 333 328 330 333 335 339 345 344 315 277 261 266 268 245 210 193 184 181 166 152 158 159 157 157 167 178 173 175 180
7 60 358 341 340 354 25 9 334 163 162 134 118 46 344 345 345 343 339 330 325 313 287 262 261 263 264 265 249 226 208 194 181 163 153 159 173 180 189 197 202 197 193 196
66 74 83 302 305 355 16 9 11 88 116 89 78 40 359 358 351 348 345 338 335 325 304 274 267 272 274 275 262 239 224 191 166 148 149 179 208 210 213 211 213 212 204 201
61 20 343 49 71 71 45 24 32 49 64 83 83 42 3 348 340 348 3 10 17 16 14 355 318 314 320 323 325 278 207 152 145 138 152 211 251 249 237 225 219 216 212 213
27 13 22 69 87 75 48 24 26 37 42 47 46 24 346 338 345 7 16 20 21 20 22 26 33 39 38 36 37 41 54 75 90 100 90 31 342 323 289 256 224 214 220 222
357 19 49 29 72 62 35 7 11 36 39 28 28 348 336 345 350 2 10 13 17 21 25 31 37 43 46 49 54 58 59 65 71 67 57 44 40 32 10 359 340 256 237 227
20 38 81 53 51 60 327 286 326 6 55 30 5 344 346 340 324 331 12 6 6 16 25 27 34 47 51 56 59 63 65 66 67 63 55 41 37 34 22 23 15 346 294 247
50 74 67 62 76 94 351 339 340 334 29 19 353 347 348 342 338 348 355 353 349 10 30 35 41 52 55 57 62 67 63 64 64 58 51 41 39 35 23 13 355 339 329 302
36 53 68 55 73 51 308 312 319 225 333 3 346 340 342 354 13 337 330 332 334 6 39 45 45 50 51 47 59 63 55 53 51 45 39 32 33 29 14 355 338 328 323 309
14 22 43 55 78 299 275 308 344 58 314 316 317 318 327 337 292 292 311 321 323 357 68 69 60 54 47 50 61 56 42 29 16 31 37 28 19 13 7 353 345 342 351 3
99 61 34 59 47 291 299 20 46 254 268 284 293 298 306 306 306 313 320 324 324 321 78 78 62 33 15 40 58 43 13 334 359 36 42 31 22 18 16 12 8 9 14 26
153 175 176 173 206 235 216 209 232 230 261 274 278 291 300 308 313 320 324 330 327 280 328 75 80 29 6 16 48 26 339 341 46 57 53 46 37 28 24 27 22 18 20 27
239 157 118 114 213 208 228 255 258 240 248 270 279 289 298 305 313 323 332 340 342 319 308 71 90 42 4 357 21 13 0 42 89 87 72 53 48 37 32 31 28 30 23 21
201 141 123 159 212 222 288 286 275 271 282 292 299 299 307 315 321 327 335 338 339 326 303 248 139 89 306 279 345 13 44 76 89 93 73 44 49 59 50 46 36 29 27 19
193 163 161 200 209 190 243 265 280 303 309 312 321 327 329 332 329 333 334 335 338 338 324 283 247 204 205 214 249 294 77 107 113 99 64 0 359 42 99 87 54 36 33 31
Height
1493 1499 1503 1500 1498 1498 1500 1503 1504 1498 1491 1491 1491 1487 1480 1475 1474 1471 1470 1470 1470 1470 1471 1473 1474 1477 1482 1486 1489 1492 1494 1497 1500 1502 1505 1507 1509 1511 1513 1514 1516 1518 1519 1520
1498 1501 1494 1491 1492 1494 1497 1502 1502 1495 1489 1489 1489 1485 1477 1473 1471 1469 1467 1466 1466 1467 1468 1470 1472 1474 1478 1482 1485 1489 1492 1494 1497 1499 1502 1505 1507 1508 1510 1512 1513 1515 1516 1517
1500 1495 1489 1490 1492 1495 1496 1499 1498 1496 1491 1488 1491 1489 1479 1471 1469 1468 1465 1463 1460 1462 1464 1466 1468 1471 1474 1478 1483 1486 1489 1492 1495 1498 1500 1503 1504 1505 1506 1507 1509 1511 1512 1514
1494 1489 1489 1491 1492 1491 1498 1488 1489 1491 1498 1503 1498 1508 1488 1477 1472 1468 1465 1460 1455 1455 1457 1461 1464 1468 1471 1476 1481 1485 1488 1491 1494 1496 1498 1499 1500 1501 1502 1504 1505 1507 1509 1511
1497 1490 1490 1492 1487 1485 1488 1483 1486 1491 1498 1505 1501 1507 1496 1484 1481 1474 1467 1459 1452 1450 1452 1456 1460 1465 1469 1475 1480 1484 1487 1490 1492 1494 1495 1496 1497 1498 1500 1501 1502 1504 1506 1507
1493 1488 1489 1489 1483 1482 1483 1487 1492 1498 1504 1513 1503 1506 1504 1496 1492 1482 1471 1462 1454 1450 1451 1455 1460 1464 1468 1474 1479 1484 1487 1489 1490 1492 1493 1494 1495 1496 1497 1499 1500 1502 1503 1504
1502 1494 1491 1489 1489 1487 1489 1502 1515 1516 1519 1515 1498 1501 1505 1498 1492 1487 1479 1469 1461 1456 1455 1455 1460 1465 1468 1473 1478 1484 1486 1488 1489 1490 1492 1493 1494 1495 1496 1498 1499 1500 1501 1501
1516 1513 1499 1494 1497 1498 1495 1499 1516 1524 1523 1512 1498 1502 1503 1497 1492 1487 1481 1474 1466 1462 1462 1462 1462 1465 1469 1473 1479 1482 1485 1486 1487 1489 1490 1492 1493 1494 1495 1496 1497 1498 1498 1499
1518 1515 1501 1498 1496 1496 1499 1501 1501 1510 1511 1514 1507 1500 1498 1494 1490 1487 1483 1478 1474 1470 1467 1467 1468 1469 1470 1474 1480 1482 1484 1485 1486 1488 1490 1491 1492 1493 1494 1495 1496 1496 1497 1497
1513 1518 1508 1502 1500 1500 1502 1503 1508 1512 1516 1517 1510 1508 1511 1502 1497 1492 1488 1484 1479 1475 1472 1470 1471 1473 1475 1478 1480 1481 1483 1485 1487 1488 1489 1491 1492 1493 1494 1495 1495 1495 1496 1496
1513 1521 1518 1511 1511 1512 1508 1510 1510 1512 1512 1517 1520 1519 1512 1508 1502 1497 1492 1488 1482 1478 1475 1474 1475 1476 1477 1478 1480 1481 1483 1485 1487 1488 1490 1491 1492 1493 1494 1494 1495 1495 1495 1495
1515 1523 1527 1519 1511 1507 1509 1512 1513 1517 1517 1516 1519 1523 1512 1509 1503 1499 1494 1488 1483 1479 1478 1477 1476 1476 1476 1478 1480 1482 1483 1485 1487 1488 1490 1491 1492 1493 1493 1494 1494 1494 1494 1494
1517 1526 1534 1528 1523 1515 1513 1512 1511 1514 1517 1517 1519 1524 1512 1508 1503 1499 1494 1489 1485 1481 1479 1478 1478 1477 1476 1477 1479 1481 1482 1484 1486 1488 1489 1491 1492 1493 1493 1493 1493 1494 1494 1494
1516 1526 1532 1536 1530 1522 1521 1516 1511 1511 1515 1518 1521 1523 1517 1510 1505 1500 1495 1490 1486 1483 1480 1478 1477 1476 1476 1476 1477 1479 1480 1483 1485 1487 1489 1490 1491 1492 1493 1493 1493 1493 1493 1493
1520 1527 1525 1525 1524 1525 1526 1523 1516 1514 1515 1520 1523 1523 1521 1515 1510 1504 1498 1492 1487 1483 1480 1478 1477 1476 1476 1476 1476 1477 1478 1481 1483 1486 1487 1489 1490 1491 1491 1491 1491 1491 1492 1491
1523 1527 1527 1529 1528 1528 1531 1530 1525 1522 1523 1524 1524 1526 1523 1518 1511 1505 1500 1495 1491 1487 1483 1480 1478 1477 1477 1477 1477 1477 1478 1480 1482 1485 1486 1487 1487 1488 1488 1488 1489 1489 1489 1489
1528 1529 1532 1535 1529 1529 1538 1541 1537 1534 1534 1532 1533 1534 1525 1518 1512 1509 1505 1500 1496 1492 1488 1484 1482 1481 1480 1479 1479 1479 1480 1481 1482 1484 1485 1485 1485 1485 1485 1485 1485 1486 1486 1486
1528 1530 1536 1538 1536 1545 1551 1543 1542 1539 1539 1538 1536 1533 1527 1521 1515 1511 1508 1505 1501 1497 1494 1491 1489 1487 1485 1484 1484 1483 1483 1483 1483 1483 1483 1483 1483 1483 1482 1482 1482 1481 1481 1481
1528 1531 1538 1543 1544 1547 1546 1542 1542 1542 1540 1540 1537 1532 1527 1521 1514 1511 1508 1506 1505 1502 1499 1497 1494 1492 1490 1489 1488 1487 1486 1485 1484 1484 1483 1482 1481 1480 1479 1478 1477 1477 1477 1476
1532 1534 1541 1545 1547 1552 1550 1542 1540 1543 1540 1539 1537 1533 1529 1523 1520 1517 1511 1508 1507 1505 1503 1501 1499 1496 1494 1493 1491 1489 1488 1487 1486 1485 1484 1482 1480 1479 1477 1475 1474 1473 1472 1472
1543 1545 1548 1550 1550 1550 1546 1541 1540 1545 1547 1540 1536 1534 1530 1527 1527 1521 1514 1511 1509 1507 1505 1503 1501 1499 1497 1496 1494 1492 1490 1489 1489 1487 1486 1483 1481 1479 1476 1474 1472 1471 1470 1469
1547 1550 1551 1553 1555 1556 1543 1542 1544 1546 1541 1538 1535 1533 1530 1526 1522 1518 1514 1511 1509 1508 1507 1505 1503 1501 1500 1498 1496 1494 1493 1492 1491 1489 1487 1485 1482 1480 1477 1475 1473 1472 1470 1470
1544 1546 1547 1549 1551 1544 1542 1542 1542 1541 1539 1537 1535 1532 1529 1525 1521 1517 1514 1511 1509 1509 1508 1506 1505 1504 1502 1501 1499 1497 1495 1494 1493 1491 1489 1487 1485 1482 1480 1478 1475 1474 1472 1471
1541 1540 1542 1545 1544 1542 1542 1541 1540 1539 1538 1536 1534 1531 1528 1525 1521 1518 1514 1512 1510 1509 1509 1508 1506 1506 1505 1503 1502 1499 1497 1496 1494 1493 1491 1489 1487 1485 1483 1481 1479 1477 1475 1474
1538 1539 1541 1543 1542 1541 1541 1540 1539 1538 1537 1535 1533 1530 1527 1524 1521 1518 1515 1513 1511 1510 1510 1509 1508 1507 1506 1505 1504 1502 1500 1498 1496 1495 1493 1491 1489 1487 1486 1484 1481 1480 1478 1476
1533 1536 1540 1542 1539 1539 1540 1539 1538 1537 1536 1534 1531 1529 1526 1524 1521 1518 1516 1514 1512 1511 1510 1510 1509 1508 1507 1506 1505 1503 1501 1499 1498 1496 1494 1493 1491 1489 1488 1486 1484 1482 1480 1479